Hourly Data Report for January 11, 2018

All times are specified in Local Standard Time (LST). Add 1 hour to adjust for Daylight Saving Time where and when it is observed.

VANCOUVER INTL A
BRITISH COLUMBIA

49°11'41.000" N
123°11'02.000" W
4.30 m
1108395
71892
YVR

Download Data

Hourly Data (January 2018)
Hourly Data Report for January 11, 2018
Temp Definition
°C
Dew Point Temp Definition
°C
Rel Hum Definition
%
Wind Dir Definition
10's deg

Wind Spd Definition
km/h
Visibility Definition
km
Stn Press Definition
kPa
Hmdx Definition


Wind Chill Definition


Weather Definition


TIME
00:00 5.4 3.5 87 4 12 32.2 101.60     LegendNANA
01:00 5.5 3.2 85 5 12 32.2 101.54     Cloudy
02:00 5.2 3.4 88 7 11 32.2 101.52     Rain
03:00 4.5 3.7 94 12 10 32.2 101.51     Rain
04:00 4.3 3.5 94 9 10 24.1 101.44     Rain
05:00 4.4 3.6 95 9 12 16.1 101.33     Rain
06:00 4.3 3.4 94 8 14 16.1 101.25     Rain
07:00 4.3 3.3 94 9 16 19.3 101.15     Rain
08:00 4.0 3.2 95 8 18 24.1 101.04     Rain
09:00 4.3 3.4 94 7 14 24.1 100.95     Rain
10:00 4.5 3.6 94 6 14 19.3 100.87     Rain
11:00 4.3 3.6 95 10 19 19.3 100.81     Rain
12:00 4.3 3.6 95 9 10 24.1 100.63     Rain
13:00 4.4 3.7 95 20 8 19.3 100.57     Rain
14:00 3.8 3.3 97 15 9 16.1 100.58     Rain
15:00 3.9 3.4 97 18 5 12.9 100.64     Rain
16:00 3.8 3.4 97 22 4 12.9 100.76     Rain
17:00 4.0 3.4 96 26 13 16.1 100.89     Rain
18:00 3.8 2.6 92 31 13 24.1 100.99     Rain
19:00 3.9 2.8 93 36 5 24.1 101.12     Rain
20:00 4.0 2.4 89 1 5 24.1 101.23     Rain
21:00 3.2 2.8 97 14 12 24.1 101.33     Rain
22:00 2.8 2.5 98 13 9 24.1 101.47     Rain
23:00 2.7 2.3 97 12 10 16.1 101.62     Rain

Notes on Data Quality.

Legend

  • E = Estimated
  • M = Missing
  • NA = Not Available
Date modified: